This is the latest recevied weather packets stored in our database for station/object KE4LOJ. If no packets are shown the sender has not sent any weather packets the latest 10 day(s).
| Time | Temp. | Humidity | Pressure | Rain* | Wind** | Luminosity | Snow |
|---|---|---|---|---|---|---|---|
| 1778015781 | 26.67° C | 52% | 1015.5 hPa | 0 mm | - | 111 W/m² | - |
| 1778015478 | 26.67° C | 52% | 1015.6 hPa | 0 mm | - | 164 W/m² | - |
| 1778015175 | 26.67° C | 52% | 1015.7 hPa | 0 mm | - | 180 W/m² | - |
| 1778014872 | 26.67° C | 52% | 1015.5 hPa | 0 mm | - | 224 W/m² | - |
| 1778014569 | 27.22° C | 52% | 1015.6 hPa | 0 mm | - | 211 W/m² | - |
| 1778014267 | 26.67° C | 52% | 1015.4 hPa | 0 mm | - | 201 W/m² | - |
| 1778013964 | 27.22° C | 51% | 1015.4 hPa | 0 mm | - | 203 W/m² | - |
| 1778013661 | 27.78° C | 50% | 1015.3 hPa | 0 mm | - | 394 W/m² | - |
| 1778013358 | 27.78° C | 51% | 1015.4 hPa | 0 mm | - | 473 W/m² | - |
| 1778013055 | 27.22° C | 51% | 1015.7 hPa | 0 mm | - | 534 W/m² | - |
| 1778012751 | 27.78° C | 51% | 1015.5 hPa | 0 mm | - | 506 W/m² | - |
| 1778012447 | 27.78° C | 51% | 1015.7 hPa | 0 mm | - | 498 W/m² | - |
| 1778012144 | 27.78° C | 50% | 1015.6 hPa | 0 mm | - | 288 W/m² | - |
| 1778011842 | 28.33° C | 50% | 1015.6 hPa | 0 mm | - | 513 W/m² | - |
| 1778011539 | 28.33° C | 51% | 1015.7 hPa | 0 mm | - | 609 W/m² | - |
| 1778011236 | 27.22° C | 51% | 1016 hPa | 0 mm | - | 658 W/m² | - |
| 1778010932 | 26.67° C | 53% | 1016 hPa | 0 mm | - | 420 W/m² | - |
| 1778010630 | 26.67° C | 53% | 1015.8 hPa | 0 mm | - | 143 W/m² | - |
| 1778010327 | 27.22° C | 52% | 1016 hPa | 0 mm | - | 141 W/m² | - |
| 1778010022 | 28.33° C | 51% | 1016.1 hPa | 0 mm | - | 224 W/m² | - |
| 1778009720 | 27.22° C | 52% | 1016.1 hPa | 0 mm | - | 782 W/m² | - |
| 1778009417 | 27.22° C | 53% | 1016.1 hPa | 0 mm | - | 243 W/m² | - |
| 1778009115 | 27.22° C | 52% | 1016 hPa | 0 mm | - | 195 W/m² | - |
| 1778008812 | 27.78° C | 50% | 1016.1 hPa | 0 mm | - | 215 W/m² | - |
| 1778008511 | 27.78° C | 51% | 1016.1 hPa | 0 mm | - | 218 W/m² | - |
* Rain latest hour (hover to see other rain measurements)
** Current wind speed in m/s (hover to see current wind gust speed)